User: anonymous   Login
Location: Unspecified
(0.0000°N, 0.0000°E)
Time: 22:56:24
(UTC+01:00)
Language:

Cosmos 1943 Rocket - Orbit

View from above orbital plane
View from above orbital plane
View from above satellite
View from above satellite

Ground track
Ground track

The orbit data is extracted from the following two-line orbital elements,

1 19120U 88039B   17328.23325925 +.00000113 +00000-0 +76698-4 0  9998
2 19120 071.0148 346.7531 0024074 299.6936 060.1793 14.19178455528822
Epoch (UTC): 24 November 2017 05:35:53
Eccentricity: 0.0024074
inclination: 71.0148°
perigee height: 811 km
apogee height: 845 km
right ascension of ascending node: 346.7531°
argument of perigee: 299.6936°
revolutions per day: 14.19178455
mean anomaly at epoch: 60.1793°
orbit number at epoch: 52882

The dashed part of the orbit path shows where the satellite is in the earth's shadow,  

DLR